Location: Bryzozowice
(50.3667°N, 18.9667°E)
Time: 09:14:21
(UTC+00:00)

SKYMED 3 - Pass Details

Date: 24 January 2020
Orbit: 621 x 623 km, 97.9° (Epoch: 17 February)

Event Time Altitude Azimuth Distance (km) Brightness Sun altitude
Exits shadow 16:54:02 - 15° (NNE) 2,883 7.7 -14.4°
Reaches altitude 10° 16:56:10 10° 17° (NNE) 2,005 6.9 -14.7°
Maximum altitude 17:00:31 77° 102° (ESE) 646 4.5 -15.4°
Drops below altitude 10° 17:04:51 10° 190° (S) 1,988 7.4 -16.0°
Sets 17:07:02 0° 192° (SSW) 2,889 8.3 -16.4°
